STARLINK-5362, 55493

Orbit data source: Space-Track

STARLINK-5362, 55493 is a payload satellite owned by SpaceX/Seattle (US) in LEO that was launched on Thu, 02 Feb 2023 UTC via an FALCON 9 launch vehicle from the Air Force Eastern Test Range (AFETR). Payload-class satellites include a variety of spacecraft equipped with specific instruments for various scientific and technological missions. These include communications satellites like Starlink; space stations such as the ISS; scientific satellites like the Hubble; Earth observation satellites from companies like Planet Labs, Umbra, and HawkEye 360; GPS; miniature CubeSats for education and research; and military/defense satellites.

Loading next visibility...
Identifier
55493, 2023-015AW
Orbit
LEO
Country
Flag of USUS
Related business
Manufacturer
SpaceX/Seattle
Mission
Operational Commercial Communications
Bus & Motor
STARLINK, Unknown motor
Mass
305 kg wet, ~290 kg dry
Launch date (UTC)
2023-02-02 (3 years ago)
Launch vehicle
FALCON 9
Launch site
Air Force Eastern Test Range (AFETR)
Object type
Payload
Rocket body
Debris
Shape & HBR
Box + 1 Pan, 10.1 m
Radar Cross Section
13.562 m², Large (>1 m²)

Expand to show TLE details & history
Last TLE update: 5 hours ago

TLE from 5 hours ago
0 STARLINK-5362
1 55493U 23015AW  26132.87396865  .00026476  00000-0  98657-3 0  9996
2 55493  42.9969 337.0645 0001755 121.4552 238.6471 15.26959658180414
Epoch: 2026-05-12T20:58Z
TLE epoch observation values (Epoch: 2026-05-12T20:58:30.891Z)
Latitude
-0.00002°
Longitude
151.79368°
Altitude
485.309 km
Speed
7.624 km/s
True Right ascension
22h 28m 15s
True Declination
0° 00' 00"
Sunlit
Object was in daylight at epoch
Visualization orbit readout
Latitude
Unknown
Longitude
Unknown
Altitude
Unknown
Speed
Unknown
Apparent Right ascension
Unknown
Apparent Declination
Unknown
Sunlit
N/A
Visualization observer readout
Local Sidereal Time
10:34:14
Azimuth
Unknown
Elevation
Unknown
Doppler factor
Unknown
Orbital elements
Apogee altitude
488.057 km
Perigee altitude
485.648 km
Semi-major axis
6,864.989 km
Eccentricity
0.00018
Inclination
42.9969°
RAAN
337.0645°
Arg. of periapsis
121.4552°
True anomaly
238.62993°
Mean anomaly
238.6471°
Eccentric anomaly
238.63851°
Mean motion
3.81578 °/min
Orbital period
94.35 mins
BSTAR
0.00098657
Loading maneuver chart data...
Computing Atmospheric mass density...
Loading historical data...
Loading historical data...
Loading historical data...
Loading historical data...
Loading historical data...
Loading historical data...
Loading historical data...

Documentation

Showing up to 5 results
|